Regional Weather Roundup
Issued by NWS

Home | Current Version | Previous Version | Graphics & Text | Print | Product List | Glossary On
Versions: 1 2 3 4 5 6 7 8 9 10 11 12 13 14 15 16 17 18 19 20 21 22 23 24 25 26 27 28 29 30 31 32 33 34 35 36 37 38 39 40 41 42 43 44 45 46 47 48 49 50
000
ASUS43 KLOT 272302
RWRIL

ILLINOIS REGIONAL WEATHER ROUNDUP
NATIONAL WEATHER SERVICE CHICAGO/ROMEOVILLE IL
600 PM CDT MON APR 27 2015

NOTE: "FAIR" INDICATES FEW OR NO CLOUDS BELOW 12,000 FEET WITH NO
SIGNIFICANT WEATHER AND/OR OBSTRUCTIONS TO VISIBILITY.

* THESE STATIONS ARE NOT UNDER NWS QUALITY CONTROL. THEY ALSO MAY NOT
  REPORT WEATHER SUCH AS PRECIPITATION OR FOG.

ILZ001-002-007-009-015-016-024-280000-
NORTHWEST ILLINOIS

CITY           SKY/WX    TMP DP  RH WIND       PRES   REMARKS
MOLINE         SUNNY     65  33  30 NE12      30.08S
STERLING*      SUNNY     64  36  34 N9G17     30.08S
$$

ILZ003-004-008-010-011-017-018-280000-
NORTH CENTRAL ILLINOIS

CITY           SKY/WX    TMP DP  RH WIND       PRES   REMARKS
ROCKFORD       MOSUNNY   64  30  27 N14       30.10S
FREEPORT*      SUNNY     64  32  30 NE15      30.10S
$$

ILZ005-006-012>014-019>023-280000-
NORTHEAST ILLINOIS

CITY           SKY/WX    TMP DP  RH WIND       PRES   REMARKS
CHICAGO-OHARE  MOSUNNY   51  33  50 NE16      30.11F
CHICAGO-MIDWAY MOSUNNY   53  33  46 N16G24    30.12F
AURORA         SUNNY     57  36  45 NE13      30.10R
LANSING*       SUNNY     47  32  54 N13G22    30.12F
WAUKEGAN       SUNNY     46  33  60 NE7       30.12F
DUPAGE AIRPORT SUNNY     52  35  52 E12       30.10S
WHEELING       SUNNY     49  32  52 NE15      30.14F
NORTHERLY ISL    N/A     45  33  63 N13         N/A
$$

LMZ740>746-280000-
SOUTHERN LAKE MICHIGAN

STATION/POSITION SKY/WX   TEMP    WIND        PRES    VSBY  WAVE
                          AIR SEA DIR/SP/G                  HT/PER
                          (F)     (DEG/KT/KT) (MB)    (MI)  (FT/S)
HARRISON CRIB              42     350/  9/ 11   N/A
BURNHAM HARBOR             45     340/ 10/ 13   N/A
CALUMET HARBOR             44     340/  8/ 12   N/A
BURNS HARBOR               42      10/ 10/ 13 1020.7S
MICHIGAN CITY              41     360/ 17/ 20   N/A
MICHIGAN CITY 6N           42 46   20/ 10/ 14   N/A           3/ 5
$$

ILZ025>027-034>036-040-047-049-050-058-095>099-280000-
WEST-CENTRAL ILLINOIS

CITY           SKY/WX    TMP DP  RH WIND       PRES   REMARKS
QUINCY         SUNNY     64  35  34 NE12      30.07S
MACOMB*        SUNNY     64  34  32 N13       30.09S
$$

ILZ028>032-037-038-041>044-048-051>054-059>061-280000-
CENTRAL ILLINOIS

CITY           SKY/WX    TMP DP  RH WIND       PRES   REMARKS
DECATUR        SUNNY     61  38  42 N15       30.06R
PEORIA         SUNNY     66  35  31 NE10G16   30.07S
LINCOLN*       SUNNY     63  36  36 NE14G23   30.05S
SPRINGFIELD    SUNNY     65  37  35 N14       30.07R
TAYLORVILLE    NOT AVBL
$$

ILZ033-039-045-046-055>057-062-063-280000-
EAST-CENTRAL ILLINOIS

CITY           SKY/WX    TMP DP  RH WIND       PRES   REMARKS
CHAMPAIGN      SUNNY     58  36  43 NE17      30.06R
MATTOON        SUNNY     58  36  43 NE20      30.06R
$$

ILZ079-100>102-280000-
SOUTHWEST ILLINOIS

CITY           SKY/WX    TMP DP  RH WIND       PRES   REMARKS
ALTON          MOSUNNY   63  28  27 NE7       30.05F
BELLEVILLE     SUNNY     64  40  40 N13       30.03F
CAHOKIA*       SUNNY     65  38  36 NE15      30.04S
SPARTA*        SUNNY     62  41  46 N14G21    30.04R
$$

ILZ064>066-069>071-074>076-080>082-084>086-088>090-092>094-280000-
SOUTH-CENTRAL ILLINOIS

CITY           SKY/WX    TMP DP  RH WIND       PRES   REMARKS
CARBONDALE     MOSUNNY   63  39  41 NE10      30.01S
MARION         PTSUNNY   64  41  42 NE12G17   30.01F
MT. VERNON     SUNNY     63  37  39 NE9G17    30.03F
SALEM*         SUNNY     64  37  35 NE14G20   30.03F
$$

ILZ067-068-072-073-078-083-087-091-280000-
SOUTHEAST ILLINOIS

CITY           SKY/WX    TMP DP  RH WIND       PRES   REMARKS
LAWRENCEVILLE  SUNNY     61  36  39 N17G24    30.04R
FLORA*         SUNNY     61  37  41 N14G20    30.04S
HARRISBURG*    SUNNY     63  39  42 NE15      30.02S
ROBINSON*      MOSUNNY   60  37  42 N13G21    30.05R
CARMI*         SUNNY     63  34  34 N12G17    30.01S
$$

ABBREVIATIONS USED IN REMARKS
   TC - TEMPERATURE IN CELSIUS
  WCI - WIND CHILL INDEX
   HX - HEAT INDEX
  VSB - VISIBILITY
$$



USA.gov is the U.S. government's official web portal to all federal, state and local government web resources and services.